GFSFLT1_850_spd_000.txt.gz
Wind_Speed
15 14 13 9 8 8 7 5 8 5 5 9 4 6 5 4 5 10 12 11 13 19 21 19 19 23 23 23 25 27 30 31
16 11 5 4 0 1 8 7 10 6 5 7 8 7 6 7 6 11 14 15 18 26 24 20 20 22 21 23 26 27 28 26
14 11 8 9 9 11 9 4 9 6 7 5 5 7 7 8 6 10 12 17 23 37 29 23 19 22 23 21 21 25 27 27
14 13 13 12 12 11 9 8 10 10 8 3 2 4 5 11 19 30 25 28 35 21 19 20 23 25 26 24 24 24 27 27
14 14 12 11 11 10 8 7 5 3 1 12 16 17 15 22 32 30 28 19 18 15 17 20 22 25 26 23 24 27 30 29
11 11 11 10 8 7 6 4 3 8 14 13 12 10 19 21 17 16 16 11 15 20 22 24 26 29 31 24 26 25 23 22
7 8 8 8 6 5 4 5 6 14 11 9 19 20 17 13 13 12 13 18 24 21 24 26 26 24 23 23 22 22 23 23
4 7 6 3 5 7 9 11 13 12 17 17 11 11 11 11 13 15 20 25 18 21 21 23 22 21 20 24 24 22 24 22
4 3 3 4 6 9 13 13 14 15 15 12 12 11 11 13 16 21 20 17 20 19 18 20 19 21 22 21 21 23 23 26
1 6 3 4 9 12 13 17 15 15 12 11 11 11 11 18 22 17 17 16 15 18 23 24 20 24 24 26 25 25 27 29
7 12 13 14 15 16 15 13 13 13 14 13 16 21 19 16 16 17 15 19 24 23 20 23 21 20 19 25 29 30 30 23
7 14 17 18 21 18 18 18 12 15 17 20 24 16 15 15 16 17 19 24 30 24 24 27 25 23 25 25 25 24 22 23
17 17 17 21 23 19 13 17 19 24 24 14 17 17 17 16 18 22 24 20 18 19 21 23 24 24 24 26 26 25 25 23
13 15 19 22 22 23 28 22 17 22 21 16 16 19 17 16 18 19 17 20 21 22 23 23 23 23 22 22 22 19 16 17
15 18 20 21 24 21 19 22 25 27 26 16 14 21 17 16 16 18 19 21 22 22 22 21 22 23 24 23 21 23 27 31
18 20 22 21 20 21 23 24 27 28 25 22 27 23 19 13 15 16 19 21 21 21 23 23 25 24 23 24 28 30 32 33
19 21 19 19 22 24 27 29 31 22 21 27 26 25 21 14 14 15 17 21 20 24 23 25 24 23 22 28 33 33 34 36
20 18 19 21 23 26 29 32 33 33 30 27 23 23 20 14 14 15 17 21 24 24 26 24 22 21 24 31 35 37 38 38
17 19 22 21 27 27 30 31 34 36 35 31 25 25 16 12 13 17 17 22 24 27 23 22 22 23 25 33 36 33 34 34

GFSFLT1_850_spd_003.txt.gz
Wind_Speed
16 15 13 11 8 7 10 5 6 12 16 12 9 8 8 7 8 7 10 14 16 20 23 29 24 22 24 25 25 24 26 26
21 21 14 9 10 16 17 11 15 20 17 14 12 12 9 9 11 17 23 22 28 32 27 27 21 21 22 23 25 27 23 25
22 15 18 18 19 18 18 18 14 14 11 10 10 11 11 17 19 14 15 22 23 25 22 20 19 20 25 27 27 25 27 25
16 13 14 16 13 9 7 7 8 8 4 6 9 11 10 11 14 20 27 21 16 13 12 14 15 18 21 23 27 29 31 33
16 11 9 9 11 6 4 5 6 5 7 12 11 12 15 17 19 18 11 15 14 11 14 17 20 23 25 26 30 33 30 30
12 8 7 6 6 8 9 10 14 16 18 17 18 14 16 12 11 12 13 12 12 16 23 29 28 29 30 31 32 28 26 24
3 6 4 6 11 10 10 10 10 15 17 21 19 19 13 12 16 16 16 18 23 29 27 22 20 24 25 25 26 27 30 30
14 10 3 4 7 9 8 12 16 17 15 10 14 14 14 14 13 15 21 26 25 22 19 18 23 22 22 22 23 26 26 27
4 3 7 10 11 11 11 13 17 14 9 14 15 13 11 8 14 26 25 16 12 14 20 23 25 26 22 24 24 25 24 29
10 10 11 7 5 9 9 10 7 9 9 12 12 9 13 28 25 18 13 10 15 19 24 31 25 24 26 27 28 26 26 26
6 9 4 6 10 11 11 11 12 10 12 13 15 23 33 21 13 14 11 16 18 27 27 25 25 26 25 22 23 24 24 22
9 10 13 13 14 16 18 20 20 21 25 27 32 31 17 13 18 19 20 26 29 28 23 24 24 24 23 25 25 25 25 24
13 12 12 16 20 26 28 19 21 26 29 31 29 25 19 23 30 26 24 25 22 17 20 23 23 23 24 23 23 24 22 16
11 14 19 20 23 26 19 22 24 28 30 31 29 26 23 29 26 21 18 17 21 19 16 19 23 25 26 27 27 26 23 25
16 18 17 20 17 16 17 20 26 28 35 34 35 36 26 21 16 15 12 18 20 17 16 19 26 26 28 30 28 28 30 32
15 18 18 14 15 18 22 26 28 31 33 32 35 34 27 21 26 15 14 20 14 14 18 23 24 26 29 28 28 30 33 35
18 14 15 18 19 23 22 22 28 32 35 36 37 34 30 30 22 18 9 9 13 18 22 22 23 24 27 30 30 30 35 36
14 16 16 16 20 16 20 26 32 34 32 36 28 28 33 29 15 16 15 14 13 20 20 19 21 28 25 26 32 35 31 29
14 13 16 17 17 20 25 31 34 33 34 32 33 31 34 24 10 11 17 15 17 18 18 19 25 22 27 28 31 31 31 29

GFSFLT1_850_spd_009.txt.gz
Wind_Speed
11 16 17 16 31 33 24 19 10 10 10 12 14 11 8 6 5 6 9 12 14 16 20 26 31 28 24 20 22 21 22 24
12 12 13 14 20 21 18 12 7 9 8 12 12 6 1 4 7 11 14 14 17 23 28 26 24 19 17 18 21 23 25 29
23 17 12 10 12 11 6 6 7 8 8 5 2 6 7 12 14 13 17 23 23 25 23 22 20 18 19 22 25 27 28 29
18 17 15 13 9 10 8 6 0 5 7 8 9 9 11 14 18 20 22 21 21 19 17 18 21 23 24 25 26 27 29 28
21 19 18 15 12 10 8 5 5 6 7 10 13 14 15 17 18 20 17 18 16 16 17 22 26 26 27 24 26 28 28 27
19 17 15 12 10 8 8 7 7 10 13 14 16 16 17 18 15 13 12 13 17 19 22 31 31 21 23 26 32 28 25 21
20 16 11 10 6 4 3 2 5 9 12 14 16 16 16 14 15 13 14 23 25 34 37 24 21 24 27 29 32 26 26 25
14 12 9 6 3 2 3 4 7 11 13 17 17 15 14 16 19 24 31 29 29 27 21 20 22 21 23 22 22 23 22 19
14 11 6 5 5 4 2 4 8 9 10 11 13 15 19 22 21 25 26 29 24 20 16 13 17 22 21 19 18 20 20 19
14 10 8 6 4 3 5 8 9 8 9 12 16 19 22 25 27 29 31 29 24 16 12 19 16 21 19 19 19 16 17 18
17 14 10 5 1 6 8 7 7 10 13 16 18 18 19 24 26 29 28 24 22 22 27 21 10 18 20 20 18 18 20 22
17 11 5 1 5 6 3 4 8 12 15 21 24 25 30 32 30 29 26 23 19 22 22 11 20 15 16 19 20 21 22 24
11 7 2 3 2 1 4 8 13 17 21 26 26 31 33 31 27 22 22 20 26 26 30 27 12 16 16 19 21 23 23 25
7 3 3 3 3 3 8 12 17 20 23 26 31 35 31 31 29 22 21 23 24 30 27 16 12 16 18 20 22 24 25 25
4 5 4 6 5 7 10 14 18 21 26 31 34 30 30 30 29 23 22 25 27 19 15 12 12 19 20 21 23 23 23 23
4 4 7 6 7 9 13 16 20 25 28 30 28 30 31 29 28 24 20 18 18 17 13 9 16 18 20 20 21 22 26 30
4 6 8 11 11 13 13 17 22 27 28 27 27 29 30 28 26 21 17 17 20 14 15 17 16 19 18 19 21 26 29 29
7 9 11 12 13 13 16 20 22 25 24 25 29 28 27 29 26 20 18 21 18 11 15 15 16 17 19 21 25 28 28 29
9 11 11 12 13 14 15 21 23 21 21 27 27 28 29 29 23 17 13 14 13 15 11 13 16 19 21 24 27 26 25 26

GFSFLT1_850_spd_012.txt.gz
Wind_Speed
13 19 18 20 26 25 24 16 17 13 13 10 7 7 6 2 7 6 8 13 15 19 28 23 22 26 25 23 21 20 22 24
9 10 11 12 14 18 18 12 3 4 5 7 5 3 8 6 5 13 17 15 18 22 22 23 24 25 22 20 19 21 24 29
12 10 10 7 9 8 6 6 4 3 3 1 7 8 9 10 14 16 17 19 22 23 23 24 22 20 20 23 24 26 26 27
22 19 18 15 15 17 16 14 11 6 6 7 8 9 10 13 15 17 18 20 20 20 22 23 24 26 30 32 28 26 28 27
20 18 17 16 16 15 12 11 8 5 4 6 8 10 12 15 17 19 20 19 19 21 24 28 34 36 28 22 25 28 29 29
23 16 15 16 14 11 8 6 2 3 6 8 10 13 14 15 17 19 20 20 28 30 32 31 26 19 19 19 22 26 27 24
21 19 13 11 10 8 4 2 2 5 7 9 11 12 11 12 14 17 19 22 24 29 27 25 21 14 15 20 23 21 20 20
20 18 14 11 7 5 3 3 5 4 6 8 9 10 12 13 16 17 22 24 26 25 23 23 19 16 14 12 18 24 20 18
17 14 13 11 9 8 5 1 4 8 10 10 11 13 14 17 20 23 26 27 27 25 22 23 25 20 27 18 14 16 16 16
18 16 14 13 10 5 1 5 9 7 10 10 15 18 18 20 25 30 29 29 26 24 21 22 22 28 17 12 15 16 16 15
21 18 14 10 5 2 6 12 7 10 13 16 21 22 24 27 31 31 29 26 20 22 21 26 26 25 16 10 14 14 16 18
21 16 10 6 1 7 13 7 7 11 16 18 21 23 28 31 29 31 28 20 18 23 23 22 22 18 13 11 15 17 19 20
16 11 7 4 4 4 5 4 11 14 17 19 21 25 26 29 30 29 25 19 18 20 22 22 24 25 13 13 17 20 22 25
13 9 7 7 4 3 5 11 12 15 16 18 22 24 27 29 30 27 24 18 17 20 23 25 20 14 11 16 19 22 23 26
11 10 9 8 4 11 14 10 13 15 17 19 21 25 28 30 29 27 24 20 20 20 19 17 16 11 13 18 21 21 24 24
10 8 8 8 17 12 10 14 14 16 18 21 22 26 29 29 28 28 24 18 16 19 20 14 11 16 18 17 19 21 25 29
10 9 7 15 13 12 14 14 15 18 22 22 23 28 27 27 29 27 22 16 18 19 14 13 14 18 15 16 21 25 29 32
11 11 10 11 14 14 14 15 18 22 24 21 25 27 26 29 29 24 21 18 15 14 12 16 16 13 15 19 23 28 29 27
11 9 10 12 13 14 15 17 21 23 21 23 27 24 26 32 28 23 21 20 18 18 18 12 11 14 19 21 27 26 25 27

GFSFLT1_850_spd_015.txt.gz
Wind_Speed
14 16 16 15 16 17 18 16 18 13 17 9 5 2 2 5 7 8 7 12 16 14 18 20 20 23 22 21 20 20 22 25
12 12 11 9 8 9 11 12 5 2 5 3 5 2 4 3 4 9 12 13 15 16 17 18 19 20 21 22 24 26 28 27
10 9 9 8 7 6 7 9 10 11 9 6 5 3 1 5 8 12 14 15 16 17 18 19 21 25 27 27 26 20 19 22
21 21 18 18 22 20 18 16 14 11 9 5 1 2 5 8 13 15 16 17 17 18 21 22 25 26 24 20 14 15 14 21
24 24 25 25 23 21 19 18 15 10 6 2 3 5 8 11 13 14 14 14 17 20 22 26 27 25 19 15 16 18 18 16
24 23 21 19 18 18 16 12 9 5 3 4 6 7 7 8 8 10 13 16 21 24 26 28 27 24 21 19 17 19 19 16
22 21 20 20 16 15 12 10 8 5 3 4 5 7 8 9 11 14 17 21 25 27 27 26 26 25 23 18 16 23 23 16
21 21 19 17 16 13 11 9 5 1 4 7 9 11 14 15 17 20 24 28 29 29 26 25 23 23 18 17 24 16 12 13
18 16 14 15 15 12 10 7 3 3 7 10 11 12 14 14 19 24 27 28 28 27 26 24 22 20 19 24 15 10 13 13
19 15 15 16 15 11 6 4 5 5 8 10 10 15 17 20 25 27 29 28 27 24 21 20 20 17 22 16 12 10 13 14
19 19 18 15 11 9 4 4 7 9 11 11 15 18 21 26 28 29 29 28 25 21 20 20 21 25 20 13 12 10 14 17
24 21 17 13 11 5 4 7 10 15 11 12 16 18 23 26 27 28 26 24 21 15 16 19 22 23 23 23 14 13 17 20
24 19 15 13 10 3 4 7 15 8 9 13 16 19 21 24 28 26 25 23 20 16 16 21 22 23 27 16 14 14 18 21
22 18 16 12 7 2 6 14 10 7 11 14 18 19 21 25 27 26 25 25 22 20 18 23 26 20 16 12 13 17 19 22
22 18 14 11 7 3 17 6 7 11 13 17 19 19 22 26 27 26 27 24 21 17 16 22 19 10 10 13 18 19 21 22
21 17 14 11 8 15 7 8 12 12 16 19 20 20 23 27 26 28 27 23 20 18 19 20 16 14 15 17 19 19 21 25
20 16 13 13 9 9 10 11 12 16 19 22 21 21 26 27 26 29 27 23 20 17 17 14 14 13 17 15 16 20 24 30
20 17 15 9 7 9 11 13 15 18 22 23 22 24 28 25 27 29 26 22 20 17 17 18 18 14 11 16 20 23 28 26
18 15 12 10 10 11 13 15 16 21 23 21 23 27 25 25 27 27 23 17 16 15 14 14 11 11 17 18 22 26 23 23

GFSFLT1_850_spd_018.txt.gz
Wind_Speed
10 11 11 10 12 13 15 16 16 16 17 16 11 3 6 2 1 3 4 7 9 10 13 14 14 9 10 12 15 15 17 18
9 12 12 12 10 10 11 12 8 6 8 9 9 7 4 3 4 5 7 10 12 12 11 12 12 12 17 19 18 19 21 18
10 10 10 10 11 11 11 11 11 13 11 9 8 7 5 4 6 9 12 12 13 12 13 10 14 16 17 17 19 17 16 15
12 13 13 13 13 14 15 16 16 13 12 9 7 4 3 3 5 7 10 12 12 14 15 20 21 20 18 16 12 11 13 14
17 16 15 16 17 17 16 16 14 14 12 9 8 4 3 4 4 5 6 14 16 19 22 25 23 20 15 12 11 12 10 14
18 18 18 17 17 18 17 16 15 13 10 6 3 1 1 2 4 7 10 12 15 17 18 19 19 17 14 16 11 9 11 18
18 17 16 15 15 17 15 14 12 10 6 3 1 2 4 4 8 11 13 16 17 18 20 19 18 15 13 10 13 13 16 13
20 18 17 16 14 14 14 12 11 8 4 2 4 7 8 8 10 12 17 18 18 19 20 19 17 15 13 16 14 16 11 10
19 18 16 16 16 14 13 12 9 6 5 6 7 8 10 8 12 16 15 17 18 20 19 17 14 13 13 15 12 14 12 11
19 17 17 17 17 15 13 11 9 6 7 11 9 9 12 15 18 17 17 17 18 19 18 14 13 12 14 14 16 17 14 14
19 17 16 17 17 16 12 10 6 8 11 7 5 9 13 16 18 18 18 18 19 18 17 16 15 17 18 17 20 17 16 16
20 18 17 18 17 15 12 7 5 8 1 4 5 10 14 17 17 16 17 19 18 18 17 16 17 19 23 21 21 20 15 16
22 20 20 19 19 16 11 1 6 4 6 6 8 12 16 12 13 16 17 18 18 18 17 16 17 19 22 23 18 13 14 18
23 22 22 21 20 17 10 4 7 10 8 8 8 10 11 12 14 17 17 18 18 17 17 17 17 19 20 16 12 12 15 17
24 23 23 21 20 18 9 16 8 10 9 9 9 11 12 14 15 17 18 19 19 17 16 17 18 16 13 12 12 13 14 11
26 25 23 21 20 19 13 10 12 12 12 10 12 13 14 15 16 18 19 20 18 17 17 16 14 11 13 14 11 10 11 15
26 24 22 21 20 15 11 13 13 14 13 12 14 16 15 16 18 17 18 19 18 16 16 16 13 11 20 15 11 10 15 16
26 25 22 20 19 13 13 13 16 16 14 16 19 17 17 17 17 17 18 18 17 14 14 12 12 9 12 10 15 16 17 16
24 22 19 17 15 11 13 15 16 15 16 20 20 16 16 17 16 17 18 17 14 13 13 11 8 9 13 16 16 19 16 13

GFSFLT1_850_spd_021.txt.gz
Wind_Speed
13 12 12 13 13 14 14 17 15 17 15 12 12 10 6 6 4 4 4 1 4 1 5 11 10 9 12 13 16 17 20 23
12 11 11 13 14 14 18 16 14 9 9 9 8 9 8 8 6 6 2 3 6 9 4 8 10 11 13 16 19 20 20 20
12 11 12 12 13 14 12 11 11 9 9 10 9 8 8 8 6 2 3 5 5 4 9 9 11 14 17 18 18 19 17 16
14 14 13 12 13 14 12 12 12 12 12 11 11 10 7 5 1 0 4 4 5 8 10 12 15 16 17 18 17 15 17 17
16 15 15 14 14 14 14 16 15 12 11 10 9 5 5 4 1 2 3 7 9 11 13 15 16 17 18 17 15 15 15 17
19 18 18 18 18 18 17 15 12 11 10 8 6 5 4 2 1 4 6 8 11 12 15 16 18 18 17 16 17 15 15 18
21 21 21 19 18 17 16 14 13 12 11 10 10 8 4 1 3 5 6 10 11 12 14 16 17 18 17 16 16 15 18 18
24 23 20 19 18 16 16 15 14 13 12 10 8 7 5 1 6 6 9 9 11 13 16 17 17 17 17 17 17 18 18 16
23 21 19 18 17 17 16 15 14 13 12 11 7 6 10 3 4 6 7 10 12 15 16 17 16 15 16 20 18 18 16 14
23 21 19 18 18 18 18 16 15 14 12 3 8 10 3 2 4 6 8 10 12 14 15 16 16 16 17 20 19 18 17 17
22 21 19 19 19 19 19 18 17 13 6 6 4 2 4 3 5 8 11 12 13 14 15 16 16 17 18 20 22 23 22 20
23 21 21 21 21 21 21 20 16 9 5 1 7 6 6 5 8 10 11 13 14 15 16 17 16 16 18 20 23 22 21 20
23 22 22 23 24 23 23 19 13 8 6 9 9 8 7 9 10 11 13 14 15 16 17 16 17 18 18 18 22 19 15 14
24 24 25 25 25 24 23 18 12 10 11 10 11 11 11 11 12 13 14 15 16 17 17 17 18 16 21 16 17 15 13 13
26 26 26 26 26 25 23 18 12 9 10 13 13 13 13 13 14 14 15 16 17 17 17 18 18 18 16 14 12 12 12 13
26 26 26 26 26 25 24 19 10 11 14 14 14 14 14 14 15 16 16 17 16 17 17 18 18 17 13 10 12 11 11 12
24 26 26 27 27 26 24 16 14 15 15 14 14 14 14 15 16 17 17 16 17 17 17 16 15 12 14 16 13 9 11 15
23 26 26 26 25 24 24 15 14 15 13 13 14 14 15 15 16 17 17 17 17 17 15 13 12 11 15 13 11 14 12 15
20 22 23 23 23 23 18 15 14 13 11 12 13 13 16 15 15 16 17 17 17 15 14 13 11 13 15 15 13 15 13 13

GFSFLT1_850_spd_024.txt.gz
Wind_Speed
15 15 16 15 19 21 21 20 15 19 25 15 12 9 8 5 5 3 4 2 2 3 7 10 9 5 9 14 20 19 20 21
16 15 14 15 20 19 17 22 21 17 19 9 8 6 9 11 11 8 7 2 2 0 7 5 7 11 13 16 19 19 21 20
16 14 15 16 16 17 19 18 16 11 9 10 10 12 11 11 9 6 5 4 5 2 11 12 13 17 19 17 19 21 17 14
18 16 16 16 18 17 15 11 11 15 12 15 15 18 16 12 2 4 4 8 6 10 12 14 18 18 16 17 20 15 17 16
21 18 17 20 21 18 12 14 13 16 18 16 13 11 12 13 13 10 0 7 8 7 8 12 13 18 21 17 15 19 21 18
22 20 22 17 16 16 18 19 18 17 13 18 16 14 13 10 8 2 1 7 9 11 13 17 19 21 20 21 18 20 21 19
19 21 20 22 21 22 24 19 16 16 16 17 18 17 16 11 7 4 10 11 10 12 16 19 18 16 16 17 19 19 19 17
23 23 24 23 24 25 23 20 19 19 21 21 21 19 14 9 8 9 12 10 12 13 17 18 17 18 15 16 20 20 23 26
24 25 24 23 22 22 22 23 20 18 17 18 17 11 6 8 12 10 9 10 11 13 16 18 17 16 14 18 22 23 24 21
24 24 24 23 22 23 24 22 21 19 20 19 12 7 8 7 9 7 7 10 11 12 17 16 16 16 15 20 22 22 20 21
24 24 23 22 22 22 23 23 23 24 23 16 10 9 7 9 8 6 9 11 13 13 15 16 17 18 16 16 18 18 21 25
25 24 24 22 21 23 24 24 25 25 21 14 11 8 11 10 7 8 11 14 13 14 15 16 17 16 17 16 18 19 22 25
27 25 24 22 22 23 24 25 24 20 20 15 9 12 13 8 9 9 11 14 14 15 16 17 17 17 19 24 24 18 18 15
27 29 26 24 24 26 24 26 23 20 17 14 14 14 12 13 11 12 14 15 15 17 17 17 18 18 19 18 13 16 15 13
23 28 28 26 25 28 26 26 23 18 16 18 13 13 14 13 12 14 16 17 17 18 16 17 18 19 19 17 11 11 16 14
22 23 26 26 25 26 27 26 24 20 21 15 13 16 14 14 15 16 17 18 20 18 16 17 18 17 18 14 16 16 12 11
12 16 17 21 23 25 26 25 24 17 14 17 16 15 13 13 17 17 19 19 18 18 19 17 17 18 20 17 15 13 11 12
12 12 17 18 21 23 26 24 22 15 20 16 12 13 10 15 16 16 17 17 19 21 19 18 17 17 19 16 14 14 14 11
9 11 15 17 18 19 22 20 20 18 14 11 12 10 11 13 18 19 16 17 19 20 19 18 17 18 17 18 16 17 16 13

GFSFLT1_850_spd_027.txt.gz
Wind_Speed
22 21 22 20 21 21 24 26 24 22 23 26 20 13 9 7 6 8 9 8 7 7 9 10 11 12 14 16 18 21 22 22
22 21 23 27 27 25 25 20 22 25 27 30 16 12 11 14 11 9 9 9 7 8 9 10 12 15 17 19 22 21 21 22
25 20 28 27 32 31 25 20 20 19 28 27 14 13 18 15 11 11 10 9 7 6 8 12 15 17 19 18 19 20 18 18
30 30 20 27 31 30 18 18 17 17 21 21 16 18 17 16 14 13 11 7 5 8 11 14 16 17 18 19 20 19 18 17
32 31 29 21 25 22 17 15 15 24 24 23 25 26 26 20 15 14 9 6 9 13 13 15 17 18 20 22 20 20 21 23
35 31 29 26 19 21 12 14 19 18 20 25 24 26 24 22 20 16 12 9 13 18 19 20 19 20 20 18 17 16 17 19
34 29 25 24 22 21 20 22 23 27 27 27 25 27 29 27 25 16 9 11 16 17 16 16 17 18 17 15 15 17 18 20
31 29 29 24 21 22 26 29 30 29 26 28 27 27 27 23 18 13 12 14 13 14 15 16 17 17 16 13 16 18 21 24
28 30 29 27 28 28 30 29 28 28 29 28 26 23 20 18 16 17 16 13 12 14 14 15 17 18 16 15 16 21 24 19
27 29 29 30 29 29 26 26 26 27 27 28 25 23 20 17 15 13 12 10 11 12 13 14 17 18 17 13 16 16 17 16
26 28 27 25 25 24 24 25 26 25 24 22 18 16 15 14 13 11 9 12 13 13 15 16 17 19 15 14 15 16 18 20
31 30 28 27 25 22 26 25 25 25 23 20 18 14 13 13 12 11 11 13 15 17 19 18 18 17 16 19 19 21 23 21
35 34 32 30 29 27 28 29 27 28 27 21 16 13 14 13 11 11 13 13 15 20 20 20 20 16 16 20 22 22 21 17
36 36 37 36 33 31 31 32 31 29 28 22 17 14 14 13 10 14 14 16 18 20 20 21 20 17 18 20 20 12 15 16
36 40 40 40 38 35 33 32 33 30 27 20 18 13 14 13 19 16 16 17 21 22 23 25 18 18 19 20 21 19 18 15
29 38 40 38 35 31 30 31 32 31 26 19 16 14 14 19 14 15 13 20 20 24 22 19 20 22 21 22 23 18 18 17
7 7 35 32 34 30 30 31 31 32 28 20 14 10 12 13 12 12 14 21 21 20 20 20 22 23 22 25 22 16 15 14
4 7 11 20 26 26 29 30 31 30 22 12 16 19 16 11 9 8 18 22 23 19 21 23 24 22 21 21 20 19 18 17
7 5 5 8 13 19 25 28 27 21 14 22 19 13 10 9 5 11 16 23 20 21 24 24 23 22 19 20 20 19 19 18

GFSFLT1_850_spd_030.txt.gz
Wind_Speed
33 31 30 24 29 34 35 32 30 30 28 27 27 22 14 9 8 8 11 12 10 9 7 7 10 13 14 16 18 20 22 22
34 32 35 32 33 37 34 31 33 30 29 30 29 23 13 15 13 12 11 11 9 8 9 11 13 14 17 20 21 20 20 21
37 34 36 34 32 34 31 31 30 28 26 27 27 23 17 14 12 12 12 11 10 11 11 12 14 18 20 19 19 20 20 19
43 42 41 37 37 32 27 25 23 27 26 28 30 22 18 19 17 15 14 14 15 13 11 13 19 19 18 19 21 20 18 18
41 41 42 40 38 34 28 26 27 29 27 34 36 29 26 23 20 19 19 18 14 11 13 18 20 17 18 19 21 20 19 17
42 39 39 37 36 35 24 27 26 26 26 35 33 29 25 23 25 24 22 18 15 13 17 20 17 18 18 18 17 17 16 16
39 38 33 28 28 30 28 17 22 26 29 32 31 30 29 31 29 25 20 16 14 16 17 17 18 17 17 17 16 14 13 15
39 37 32 29 29 27 23 19 26 29 29 28 30 31 34 35 30 24 19 19 18 18 17 14 14 15 15 15 15 15 16 19
40 38 33 30 31 28 25 23 26 25 26 28 29 31 30 27 24 22 20 17 13 10 11 15 15 15 16 16 15 15 17 18
37 36 33 32 28 29 25 26 26 29 26 26 25 24 24 24 22 19 15 10 11 11 14 14 16 18 18 17 16 15 16 19
33 33 32 31 27 27 26 27 28 30 27 24 23 24 24 21 19 16 15 13 10 15 15 17 18 19 20 18 17 17 19 21
34 33 32 29 28 28 27 30 30 30 28 26 25 24 23 19 18 17 13 11 15 16 17 21 22 21 21 18 18 21 24 26
34 32 32 33 33 31 30 30 32 33 32 30 26 24 23 22 19 16 15 15 15 15 17 19 23 23 22 19 19 22 22 25
38 36 37 38 37 36 35 35 34 32 31 29 27 24 22 20 17 15 14 16 15 13 17 18 24 24 21 20 22 23 21 20
38 40 41 42 42 41 39 36 33 30 32 31 28 25 20 17 17 17 18 17 10 12 17 22 22 23 21 20 22 22 20 23
34 38 41 43 42 41 38 35 32 32 33 32 29 23 18 16 18 18 18 10 9 10 17 22 24 22 21 20 20 20 20 19
7 18 36 39 40 39 38 35 35 33 33 31 25 18 16 19 21 20 15 10 3 14 21 20 20 21 20 19 20 21 20 18
10 6 4 15 28 32 34 34 35 33 32 24 20 20 21 22 19 15 7 7 13 14 19 18 19 20 21 22 20 21 20 20
7 6 4 4 11 20 27 34 31 31 27 24 24 26 27 22 12 2 13 13 12 21 21 22 25 23 21 18 18 20 21 22

GFSFLT1_850_spd_033.txt.gz
Wind_Speed
34 34 33 30 29 30 27 28 28 27 24 26 24 23 22 21 18 14 12 13 15 14 11 11 9 7 10 15 18 18 19 20
31 33 33 34 34 34 31 31 31 30 30 31 29 28 24 19 14 9 10 11 11 12 12 10 8 10 15 17 19 20 22 21
35 34 35 34 36 37 36 34 31 32 32 31 31 28 25 17 11 12 13 13 12 11 11 10 11 14 17 22 24 24 23 22
41 38 38 35 37 34 36 37 35 35 34 33 31 29 23 20 17 17 15 13 13 12 12 12 13 16 19 24 25 24 22 21
44 45 44 43 41 37 37 39 35 35 35 35 34 34 32 27 20 19 16 17 15 13 14 14 15 16 21 24 23 22 21 18
46 48 46 44 44 39 39 39 38 35 37 36 34 34 31 25 22 21 20 19 16 16 15 14 14 18 22 21 20 20 17 14
45 44 44 44 45 42 39 40 30 33 34 32 35 33 29 27 26 25 23 20 19 18 17 15 14 18 20 22 20 17 16 14
45 46 48 45 45 42 41 32 33 31 29 32 29 32 29 28 27 28 27 25 22 20 16 15 21 17 22 19 17 16 15 15
45 46 45 44 41 39 39 28 27 25 30 30 27 29 31 31 31 32 29 26 21 16 13 21 16 15 15 15 16 15 15 14
42 43 42 39 35 33 25 25 27 25 29 27 28 30 30 29 31 30 28 22 18 18 20 8 12 15 14 16 15 15 14 13
31 36 37 37 31 29 23 26 25 25 30 26 27 29 28 29 31 32 29 27 23 22 9 11 12 12 14 16 15 15 15 17
24 27 33 34 30 29 24 26 27 29 30 27 30 29 29 30 30 29 28 24 21 17 17 11 10 13 15 18 17 16 16 18
21 28 35 36 34 32 30 27 30 33 32 30 26 25 27 28 30 28 24 22 18 17 13 10 10 13 17 20 17 17 18 18
28 32 35 36 36 35 32 34 37 35 33 28 25 27 27 29 28 25 25 23 19 15 15 7 10 15 19 20 20 17 19 18
30 31 34 34 35 35 35 38 39 36 29 27 27 28 29 29 27 25 23 17 16 15 9 7 11 20 21 19 18 19 18 18
29 31 31 34 37 38 39 40 38 33 30 30 29 31 30 26 25 21 17 19 15 10 9 8 18 22 21 18 20 18 18 18
10 19 27 34 37 38 38 36 34 34 31 30 31 29 24 21 20 24 20 19 13 10 14 23 17 22 17 19 18 18 18 18
6 2 3 9 19 26 30 32 31 31 33 31 31 27 25 25 24 22 18 11 5 16 24 15 21 21 21 20 18 19 19 20
6 4 1 2 6 12 19 24 26 28 28 28 27 27 24 21 20 16 7 9 21 26 13 19 23 22 18 17 19 19 20 21

GFSFLT1_850_spd_036.txt.gz
Wind_Speed
24 27 26 27 26 24 24 23 21 21 21 21 22 22 21 20 20 15 14 17 19 19 16 13 10 7 8 9 11 12 13 15
25 25 29 28 27 26 27 27 26 25 26 27 25 24 24 23 17 15 16 16 16 16 14 12 9 9 9 8 10 11 14 17
29 27 29 31 30 29 30 30 29 27 27 26 25 23 23 19 19 18 15 13 13 14 14 12 12 10 8 10 13 15 18 20
34 34 35 32 34 33 33 32 29 29 28 28 27 26 25 25 24 20 15 15 16 17 16 14 12 9 9 13 16 18 21 22
33 36 37 38 36 33 34 33 32 31 30 30 31 31 32 31 27 21 19 19 19 17 15 14 12 10 11 14 17 22 28 24
37 39 38 37 36 36 33 33 31 34 32 32 33 34 34 32 25 24 23 22 20 17 17 16 15 12 13 19 22 32 26 20
41 38 39 39 37 36 35 35 33 35 35 36 36 37 37 32 27 28 26 24 20 20 20 18 14 13 17 24 30 24 20 19
44 43 42 43 42 41 39 36 34 38 39 38 38 40 38 31 28 29 28 27 24 25 23 21 18 16 26 27 18 18 18 16
48 44 45 44 43 44 41 39 24 36 42 40 39 41 37 31 28 32 30 28 27 26 26 21 18 26 27 17 16 16 14 14
37 43 46 44 43 42 38 38 34 26 25 33 32 35 32 27 28 33 29 29 30 31 27 24 21 18 12 11 12 13 14 14
30 34 39 38 42 40 38 33 30 27 23 23 27 28 27 27 29 29 28 30 33 30 23 23 13 9 9 9 10 13 13 12
18 21 23 23 25 34 33 30 28 25 25 25 28 29 28 27 28 24 26 29 31 24 22 18 11 10 9 8 13 14 12 11
16 18 21 24 22 27 32 24 20 18 21 26 28 29 27 24 22 25 28 30 26 22 17 12 12 10 7 10 17 14 15 14
13 18 20 23 27 30 27 21 21 20 22 25 26 27 24 22 23 26 27 27 22 18 12 11 13 8 7 15 18 17 17 18
14 17 19 22 24 23 22 22 23 23 23 25 25 26 23 26 27 27 25 21 20 19 14 14 11 8 17 16 20 20 19 20
13 16 18 18 20 23 24 25 27 27 25 25 26 27 27 27 27 25 24 21 22 21 18 16 11 22 24 17 21 19 21 21
1 3 7 12 15 19 22 24 25 26 25 24 28 28 29 27 25 24 26 29 26 24 20 14 26 25 15 19 21 21 22 22
11 10 7 4 4 6 10 14 18 20 23 26 27 27 24 21 20 19 20 22 23 20 15 22 27 19 18 23 24 24 22 22
10 8 7 5 4 6 8 10 13 15 18 20 21 21 20 18 19 20 19 12 10 17 24 26 15 19 21 21 22 22 23 23

GFSFLT1_850_spd_039.txt.gz
Wind_Speed
20 23 22 24 25 29 27 22 19 18 17 17 19 21 22 21 19 18 16 13 13 15 15 14 14 13 12 10 7 8 9 10
20 22 24 26 27 27 27 26 22 20 20 22 24 24 23 23 22 20 18 15 17 17 16 16 15 15 13 10 8 9 9 10
23 25 26 28 29 29 28 27 24 23 22 24 25 23 23 23 24 21 18 19 16 16 16 16 17 16 12 10 9 9 9 10
25 29 31 32 33 32 30 29 27 27 26 25 25 24 25 27 25 21 21 18 16 17 18 18 17 15 14 11 8 7 12 14
27 29 32 33 35 34 33 31 29 29 28 29 29 30 30 30 24 21 21 20 19 18 20 19 18 16 13 10 9 10 15 22
32 33 34 33 31 32 31 30 29 30 31 30 31 31 31 29 26 24 24 23 21 21 21 20 20 18 15 12 9 16 24 21
36 32 32 34 33 33 32 31 31 29 28 31 31 32 32 31 29 28 27 25 24 24 23 23 21 20 17 13 20 26 17 16
39 38 36 35 34 33 33 34 33 29 24 30 32 32 34 34 32 31 30 30 30 28 27 26 23 22 19 20 19 18 15 12
43 42 39 37 36 35 35 35 32 24 21 25 32 33 34 35 34 32 32 31 31 30 29 27 25 22 19 19 16 15 10 12
30 37 42 40 39 36 36 35 33 28 24 22 26 29 32 31 30 33 31 30 31 32 31 28 25 21 18 16 13 9 8 15
15 19 24 32 37 33 32 33 30 27 29 30 24 22 26 31 33 32 30 30 32 33 33 29 24 19 18 14 10 5 14 15
9 13 17 19 20 22 23 25 26 26 25 23 25 19 20 23 24 27 27 29 34 34 32 26 21 16 11 8 6 11 15 13
7 8 9 10 10 11 13 13 17 21 18 17 17 17 19 22 23 25 25 28 33 33 28 23 15 14 13 10 11 19 12 15
10 12 13 13 14 16 16 14 13 15 15 17 20 22 24 25 23 20 22 27 30 31 27 22 20 18 14 14 16 16 15 18
8 8 9 10 11 12 13 14 16 18 19 20 21 21 18 19 18 20 20 24 25 28 24 20 18 21 17 16 25 20 18 22
4 4 4 4 4 6 10 13 15 14 13 14 14 14 15 16 18 18 18 20 24 25 26 25 25 20 17 26 25 18 22 23
10 8 7 5 3 3 4 5 6 7 8 9 11 12 15 18 18 17 17 20 25 26 24 19 21 28 29 30 19 20 23 24
19 17 15 12 8 5 3 1 2 4 6 9 11 13 15 16 16 19 20 21 25 22 22 29 32 30 27 19 20 24 26 26
17 14 12 10 8 6 5 4 4 3 3 4 6 7 10 11 13 15 15 17 16 25 22 25 24 26 19 19 21 26 28 28

GFSFLT1_850_spd_042.txt.gz
Wind_Speed
22 22 22 22 23 24 26 27 21 18 16 17 16 18 17 18 21 22 20 19 18 17 16 15 15 16 14 13 12 8 4 5
20 22 24 25 24 24 25 24 21 19 18 17 16 17 18 19 20 20 20 20 18 16 18 18 18 16 15 15 11 7 4 6
21 23 24 25 27 28 28 27 24 21 17 18 16 17 17 17 20 22 21 21 20 18 20 19 19 18 18 15 11 7 5 7
21 24 26 26 28 27 27 25 23 21 19 16 16 16 17 18 24 25 25 25 22 21 20 21 21 20 19 17 14 11 6 8
21 23 27 28 27 25 25 24 23 23 23 20 22 21 19 20 23 25 24 25 23 24 23 23 23 23 21 19 18 16 9 15
26 27 27 26 25 26 26 26 26 25 24 24 22 22 19 18 19 22 25 25 27 26 25 25 25 23 23 22 21 15 15 18
26 24 24 25 26 27 28 29 29 27 24 23 27 25 23 28 28 28 28 27 27 28 26 26 26 25 25 24 19 17 17 13
28 28 29 27 28 29 30 31 32 32 25 25 27 26 30 34 30 31 30 31 31 29 29 28 28 28 25 22 19 17 14 10
30 29 28 28 28 29 30 32 33 33 30 24 24 30 33 36 29 30 30 31 30 27 29 30 28 27 25 21 17 18 12 11
21 25 28 25 25 27 27 27 29 31 28 25 12 28 29 27 26 28 27 29 28 27 28 29 29 28 24 19 17 14 10 9
9 12 16 20 22 21 22 23 23 22 22 30 26 27 20 19 21 23 24 23 26 27 28 29 31 27 24 21 20 9 7 8
3 6 8 10 13 15 16 18 18 18 18 26 28 25 23 20 18 18 18 20 21 26 27 33 32 28 24 20 11 13 10 19
2 5 6 7 8 10 11 12 13 14 15 17 15 16 17 19 19 20 21 21 22 26 29 33 31 27 22 17 16 14 15 16
4 6 8 10 11 12 11 11 12 12 12 14 16 18 21 21 21 21 21 18 17 25 28 29 24 20 16 16 20 15 23 17
7 8 8 8 9 9 10 11 12 13 13 15 16 17 15 14 14 13 14 14 17 23 27 25 23 20 22 24 20 25 24 24
7 8 8 8 8 8 9 9 9 8 8 8 9 9 8 9 8 10 12 15 17 20 21 22 24 27 25 25 28 31 28 22
8 9 10 9 10 9 8 7 6 5 5 5 4 5 6 7 9 11 12 13 14 16 22 27 26 28 31 33 32 34 31 22
13 12 13 12 12 11 10 9 7 6 5 3 2 3 4 6 7 8 10 11 13 14 21 22 21 27 32 28 29 28 22 21
15 15 17 16 14 12 10 9 8 7 7 6 5 4 2 1 1 2 3 5 8 9 10 15 20 21 23 22 22 22 23 23

GFSFLT1_850_spd_045.txt.gz
Wind_Speed
18 21 25 25 24 23 22 26 25 20 19 15 14 15 16 16 16 16 18 16 19 18 13 14 13 11 10 10 10 9 8 7
19 23 24 25 25 25 22 26 28 19 19 17 16 17 17 18 17 18 18 17 19 19 14 15 14 13 13 14 12 11 8 8
23 23 24 23 24 25 25 26 24 22 18 18 17 16 18 18 18 21 21 18 18 19 17 16 15 15 16 16 14 10 9 9
26 26 27 26 27 27 27 26 24 21 20 16 16 15 16 19 19 18 23 21 20 21 19 18 17 17 17 17 17 15 11 10
26 28 29 30 29 27 27 26 26 26 22 21 20 19 20 18 21 22 23 22 21 21 20 20 21 18 17 17 16 15 15 13
27 29 30 29 28 29 29 28 27 25 25 24 22 19 17 17 19 20 21 18 23 23 22 23 23 19 17 18 17 18 16 17
27 27 27 29 30 30 31 30 29 28 27 25 24 22 20 21 22 22 19 20 20 24 25 26 25 26 23 21 23 21 20 18
27 28 29 29 30 31 33 31 32 31 30 30 26 28 24 26 28 26 23 21 24 27 28 28 28 28 25 26 25 24 19 19
30 30 30 30 30 30 31 31 31 31 32 34 30 32 30 26 24 25 30 33 37 31 30 27 27 28 30 27 26 22 20 19
31 32 31 30 29 30 33 30 28 28 34 37 30 36 33 26 26 30 31 31 31 31 28 27 27 30 29 28 25 23 20 16
16 22 29 30 28 27 29 27 27 29 36 34 35 36 31 27 26 24 19 29 29 27 26 26 26 29 30 27 26 21 17 11
6 11 15 19 22 24 25 25 25 26 27 21 28 32 24 21 21 17 19 24 24 23 26 28 27 28 28 26 21 17 16 19
5 8 10 13 16 20 22 22 23 23 24 20 25 26 21 23 20 18 20 20 20 22 22 25 24 27 24 22 20 17 21 18
6 8 9 11 13 15 16 17 18 18 18 17 19 19 19 20 20 20 19 18 21 20 21 22 27 24 22 23 20 24 23 22
9 10 11 12 13 14 14 14 15 16 16 16 14 15 17 15 14 14 13 13 16 17 18 21 22 20 21 25 23 24 20 27
11 12 13 13 13 13 14 13 13 13 13 12 12 10 8 6 3 4 6 8 10 12 13 16 18 19 22 22 22 18 26 31
9 12 13 13 13 14 14 13 12 11 13 11 10 9 8 9 9 8 6 6 8 7 8 8 10 13 15 22 17 21 31 30
12 13 13 14 13 13 14 14 14 14 14 13 12 10 9 8 6 4 3 2 2 2 3 5 7 7 13 15 22 26 27 27
15 16 17 17 17 17 17 16 16 15 15 13 11 10 8 7 7 6 5 4 2 1 2 4 8 12 15 19 20 22 21 20

GFSFLT1_850_spd_048.txt.gz
Wind_Speed
19 19 24 25 29 26 24 30 31 35 36 34 19 17 19 19 23 21 20 21 24 21 20 19 20 16 14 16 15 15 14 11
21 24 24 25 25 27 29 34 38 38 42 42 26 24 24 26 24 20 23 21 23 24 20 21 19 17 16 17 18 18 19 20
27 28 27 24 21 22 31 32 32 32 33 30 26 24 22 23 23 22 22 23 23 22 22 21 21 18 20 21 21 21 17 17
30 32 31 33 30 25 25 24 30 30 25 25 25 20 20 22 24 25 29 29 23 23 20 22 22 19 22 23 23 20 17 20
34 35 36 35 34 30 31 32 29 28 23 23 23 26 24 25 25 25 23 22 27 23 22 22 24 24 23 26 23 21 22 18
36 37 36 40 33 38 33 33 30 29 27 28 23 25 20 24 26 26 29 25 24 25 24 24 29 27 25 26 23 20 22 25
35 37 36 36 36 36 36 36 36 35 31 27 26 26 23 22 23 25 27 21 18 25 26 26 30 29 25 26 26 25 28 26
34 36 38 37 39 39 39 39 37 34 31 28 26 24 21 27 27 23 23 16 18 28 22 26 31 28 26 27 29 30 29 23
34 35 39 39 40 40 40 40 38 36 36 32 30 27 29 31 30 33 30 28 25 33 32 28 29 30 28 30 31 29 25 23
32 35 38 41 42 42 43 41 37 37 38 42 43 27 31 33 35 28 27 29 30 32 33 29 28 29 28 30 32 29 23 21
17 33 35 39 43 43 42 41 39 38 38 43 44 38 33 30 36 32 27 30 30 24 24 26 26 26 29 30 30 27 23 19
5 8 14 34 37 46 47 42 38 34 34 39 43 45 40 34 32 31 27 22 22 23 22 25 25 25 29 31 30 26 22 22
9 6 7 11 12 14 30 35 34 28 32 35 30 31 38 32 31 27 23 21 21 21 22 22 23 26 31 31 27 21 23 26
7 9 9 10 10 14 16 22 22 21 26 29 20 21 28 25 24 22 21 21 22 23 19 20 22 25 26 24 20 22 26 22
9 13 12 12 13 15 17 17 17 17 19 22 24 25 29 25 24 21 20 21 19 18 19 21 22 22 23 22 21 21 22 21
10 12 18 17 16 17 17 19 21 21 19 22 24 25 19 18 16 15 17 18 17 16 17 16 15 17 17 14 14 17 19 20
11 15 18 20 18 20 24 22 21 17 20 20 18 15 13 10 10 9 10 11 10 8 7 8 9 9 9 11 10 15 14 19
9 13 16 21 20 22 20 20 20 21 20 19 18 18 18 18 15 13 11 9 8 7 7 6 6 6 7 7 8 11 18 23
13 15 18 20 21 21 21 21 22 19 19 19 18 17 15 14 13 12 11 10 8 7 7 6 4 6 7 9 13 17 17 17